Time,TemperatureF,DewpointF,PressureIn,WindDirection,WindDirectionDegrees,WindSpeedMPH,WindSpeedGustMPH,Humidity,HourlyPrecipIn,Conditions,Clouds,dailyrainin,SoftwareType,DateUTC
2013-03-05 00:01:00,30.0,23.0,30.02,NNE,24,2.0,4.0,76,0.00,,,0.00,,2013-03-05 06:01:00,
2013-03-05 00:11:00,30.0,23.0,30.02,NNE,24,2.0,4.0,76,0.00,,,0.00,,2013-03-05 06:11:00,
2013-03-05 00:22:00,30.0,23.0,30.02,NNE,30,0.0,4.0,76,0.00,,,0.00,,2013-03-05 06:22:00,
2013-03-05 00:31:00,30.0,24.0,30.01,NNE,25,0.0,4.0,77,0.00,,,0.00,,2013-03-05 06:31:00,
2013-03-05 00:41:00,30.0,24.0,30.01,NNE,25,0.0,4.0,77,0.00,,,0.00,,2013-03-05 06:41:00,
2013-03-05 00:52:00,30.0,24.0,30.01,NNE,25,0.0,4.0,77,0.00,,,0.00,,2013-03-05 06:52:00,
2013-03-05 01:01:00,30.0,24.0,30.01,NE,42,1.0,2.0,78,0.00,,,0.00,,2013-03-05 07:01:00,
2013-03-05 01:11:00,30.0,24.0,30.01,NE,42,1.0,2.0,78,0.00,,,0.00,,2013-03-05 07:11:00,
2013-03-05 01:22:00,31.0,25.0,29.99,NE,51,2.0,4.0,77,0.00,,,0.00,,2013-03-05 07:22:00,
2013-03-05 01:31:00,31.0,25.0,29.99,ENE,59,2.0,4.0,77,0.00,,,0.00,,2013-03-05 07:31:00,
2013-03-05 01:42:00,31.0,25.0,29.99,ENE,59,2.0,4.0,77,0.00,,,0.00,,2013-03-05 07:42:00,
2013-03-05 01:52:00,31.0,25.0,29.99,ENE,59,2.0,4.0,77,0.00,,,0.00,,2013-03-05 07:52:00,
2013-03-05 02:02:00,31.0,24.0,29.98,ENE,63,3.0,5.0,74,0.00,,,0.00,,2013-03-05 08:02:00,
2013-03-05 02:11:00,31.0,24.0,29.98,ENE,63,3.0,5.0,74,0.00,,,0.00,,2013-03-05 08:11:00,
2013-03-05 02:21:00,31.0,24.0,29.98,NE,47,2.0,5.0,75,0.00,,,0.00,,2013-03-05 08:21:00,
2013-03-05 02:31:00,31.0,24.0,29.98,NE,47,2.0,5.0,75,0.00,,,0.00,,2013-03-05 08:31:00,
2013-03-05 02:41:00,31.0,24.0,29.98,NE,47,2.0,5.0,75,0.00,,,0.00,,2013-03-05 08:41:00,
2013-03-05 02:52:00,31.0,24.0,29.96,NE,35,2.0,5.0,75,0.00,,,0.00,,2013-03-05 08:52:00,
2013-03-05 03:01:00,31.0,24.0,29.96,ENE,73,2.0,4.0,75,0.00,,,0.00,,2013-03-05 09:01:00,
2013-03-05 03:11:00,31.0,24.0,29.96,ENE,73,2.0,4.0,75,0.00,,,0.00,,2013-03-05 09:11:00,
2013-03-05 03:21:00,31.0,24.0,29.95,NE,49,2.0,6.0,76,0.00,,,0.00,,2013-03-05 09:21:00,
2013-03-05 03:31:00,31.0,24.0,29.94,NE,34,3.0,6.0,76,0.00,,,0.00,,2013-03-05 09:31:00,
2013-03-05 03:42:00,31.0,24.0,29.94,NE,34,3.0,6.0,76,0.00,,,0.00,,2013-03-05 09:42:00,
2013-03-05 03:52:00,31.0,24.0,29.94,ENE,73,2.0,6.0,76,0.00,,,0.00,,2013-03-05 09:52:00,
2013-03-05 04:01:00,31.0,24.0,29.94,NE,38,2.0,6.0,75,0.00,,,0.00,,2013-03-05 10:01:00,
2013-03-05 04:11:00,31.0,24.0,29.94,NE,38,2.0,6.0,75,0.00,,,0.00,,2013-03-05 10:11:00,
2013-03-05 04:21:00,31.0,24.0,29.94,NE,55,2.0,5.0,75,0.00,,,0.00,,2013-03-05 10:21:00,
2013-03-05 04:32:00,31.0,24.0,29.93,NNE,27,2.0,6.0,76,0.00,,,0.00,,2013-03-05 10:32:00,
2013-03-05 04:42:00,31.0,24.0,29.93,NNE,27,2.0,6.0,76,0.00,,,0.00,,2013-03-05 10:42:00,
2013-03-05 04:52:00,31.0,25.0,29.92,NE,56,4.0,9.0,77,0.00,,,0.00,,2013-03-05 10:52:00,
2013-03-05 05:01:00,31.0,25.0,29.93,ENE,71,2.0,7.0,77,0.00,,,0.00,,2013-03-05 11:01:00,
2013-03-05 05:11:00,31.0,25.0,29.93,ENE,71,2.0,7.0,77,0.00,,,0.00,,2013-03-05 11:11:00,
2013-03-05 05:22:00,31.0,25.0,29.93,ENE,70,4.0,7.0,78,0.00,,,0.00,,2013-03-05 11:22:00,
2013-03-05 05:32:00,31.0,25.0,29.91,East,81,4.0,10.0,78,0.00,,,0.00,,2013-03-05 11:32:00,
2013-03-05 05:42:00,31.0,25.0,29.91,East,81,4.0,10.0,78,0.00,,,0.00,,2013-03-05 11:42:00,
2013-03-05 05:52:00,31.0,25.0,29.92,NE,41,4.0,10.0,77,0.00,,,0.00,,2013-03-05 11:52:00,
2013-03-05 06:02:00,31.0,25.0,29.92,NE,53,3.0,8.0,77,0.00,,,0.00,,2013-03-05 12:02:00,
2013-03-05 06:11:00,31.0,25.0,29.92,NE,53,3.0,8.0,77,0.00,,,0.00,,2013-03-05 12:11:00,
2013-03-05 06:22:00,31.0,25.0,29.92,ENE,63,3.0,7.0,77,0.00,,,0.00,,2013-03-05 12:22:00,
2013-03-05 06:32:00,31.0,25.0,29.91,ENE,78,4.0,8.0,77,0.00,,,0.00,,2013-03-05 12:32:00,
2013-03-05 06:42:00,31.0,25.0,29.91,ENE,78,4.0,8.0,77,0.00,,,0.00,,2013-03-05 12:42:00,
2013-03-05 06:52:00,31.0,25.0,29.91,ENE,59,3.0,9.0,77,0.00,,,0.00,,2013-03-05 12:52:00,
2013-03-05 07:02:00,31.0,25.0,29.91,NE,48,2.0,8.0,78,0.00,,,0.00,,2013-03-05 13:02:00,
2013-03-05 07:11:00,31.0,25.0,29.91,NE,48,2.0,8.0,78,0.00,,,0.00,,2013-03-05 13:11:00,
2013-03-05 07:21:00,32.0,26.0,29.90,NE,44,3.0,7.0,77,0.00,,,0.00,,2013-03-05 13:21:00,
2013-03-05 07:32:00,32.0,26.0,29.90,NE,44,3.0,7.0,77,0.00,,,0.00,,2013-03-05 13:32:00,
2013-03-05 07:42:00,32.0,26.0,29.90,NE,44,3.0,7.0,77,0.00,,,0.00,,2013-03-05 13:42:00,
2013-03-05 07:52:00,32.0,26.0,29.91,ENE,72,3.0,8.0,79,0.00,,,0.00,,2013-03-05 13:52:00,
2013-03-05 08:02:00,31.0,25.0,29.91,ENE,59,3.0,8.0,79,0.00,,,0.00,,2013-03-05 14:02:00,
2013-03-05 08:11:00,31.0,25.0,29.91,ENE,59,3.0,8.0,79,0.00,,,0.00,,2013-03-05 14:11:00,
2013-03-05 08:21:00,31.0,26.0,29.91,NE,54,4.0,9.0,80,0.00,,,0.00,,2013-03-05 14:21:00,
2013-03-05 08:32:00,31.0,26.0,29.92,NNE,32,4.0,7.0,82,0.00,,,0.00,,2013-03-05 14:32:00,
2013-03-05 08:42:00,31.0,26.0,29.92,NNE,32,4.0,7.0,82,0.00,,,0.00,,2013-03-05 14:42:00,
2013-03-05 08:52:00,31.0,26.0,29.92,NE,50,4.0,8.0,83,0.00,,,0.00,,2013-03-05 14:52:00,
2013-03-05 09:01:00,30.0,26.0,29.92,ENE,60,4.0,8.0,85,0.00,,,0.00,,2013-03-05 15:01:00,
2013-03-05 09:11:00,30.0,26.0,29.92,ENE,60,4.0,8.0,85,0.00,,,0.00,,2013-03-05 15:11:00,
2013-03-05 09:21:00,30.0,27.0,29.92,NE,51,2.0,6.0,88,0.00,,,0.00,,2013-03-05 15:21:00,
2013-03-05 09:32:00,30.0,27.0,29.92,NE,51,2.0,6.0,88,0.00,,,0.00,,2013-03-05 15:32:00,
2013-03-05 09:42:00,30.0,27.0,29.92,NE,51,2.0,6.0,88,0.00,,,0.00,,2013-03-05 15:42:00,
2013-03-05 09:51:00,30.0,27.0,29.91,ENE,60,2.0,7.0,90,0.00,,,0.00,,2013-03-05 15:51:00,
2013-03-05 10:01:00,30.0,28.0,29.92,NE,45,4.0,5.0,91,0.00,,,0.00,,2013-03-05 16:01:00,
2013-03-05 10:11:00,30.0,28.0,29.92,NE,45,4.0,5.0,91,0.00,,,0.00,,2013-03-05 16:11:00,
2013-03-05 10:21:00,31.0,28.0,29.91,ENE,61,4.0,9.0,90,0.00,,,0.00,,2013-03-05 16:21:00,
2013-03-05 10:32:00,31.0,28.0,29.91,East,80,5.0,9.0,90,0.00,,,0.00,,2013-03-05 16:32:00,
2013-03-05 10:42:00,31.0,28.0,29.91,East,80,5.0,9.0,90,0.00,,,0.00,,2013-03-05 16:42:00,
2013-03-05 10:52:00,30.0,27.0,29.90,NE,52,5.0,10.0,90,0.00,,,0.00,,2013-03-05 16:52:00,
2013-03-05 11:01:00,30.0,28.0,29.89,NE,46,3.0,8.0,91,0.00,,,0.00,,2013-03-05 17:01:00,
2013-03-05 11:11:00,30.0,28.0,29.89,NE,46,3.0,8.0,91,0.00,,,0.00,,2013-03-05 17:11:00,
2013-03-05 11:21:00,30.0,28.0,29.89,ENE,57,4.0,11.0,91,0.00,,,0.00,,2013-03-05 17:21:00,
2013-03-05 11:32:00,30.0,28.0,29.89,ENE,57,4.0,11.0,91,0.00,,,0.00,,2013-03-05 17:32:00,
2013-03-05 11:41:00,30.0,28.0,29.89,ENE,57,4.0,11.0,91,0.00,,,0.00,,2013-03-05 17:41:00,
2013-03-05 11:52:00,31.0,28.0,29.87,NE,44,3.0,8.0,89,0.00,,,0.00,,2013-03-05 17:52:00,
2013-03-05 12:02:00,31.0,28.0,29.87,NNE,29,3.0,8.0,89,0.00,,,0.00,,2013-03-05 18:02:00,
2013-03-05 12:11:00,31.0,28.0,29.87,NNE,29,3.0,8.0,89,0.00,,,0.00,,2013-03-05 18:11:00,
2013-03-05 12:21:00,31.0,28.0,29.86,NE,35,2.0,8.0,89,0.00,,,0.00,,2013-03-05 18:21:00,
2013-03-05 12:32:00,31.0,28.0,29.86,NE,45,4.0,9.0,89,0.00,,,0.00,,2013-03-05 18:32:00,
2013-03-05 12:42:00,31.0,28.0,29.86,NE,45,4.0,9.0,89,0.00,,,0.00,,2013-03-05 18:42:00,
2013-03-05 12:52:00,30.0,27.0,29.86,NNE,30,2.0,8.0,90,0.00,,,0.00,,2013-03-05 18:52:00,
2013-03-05 13:01:00,30.0,28.0,29.85,ENE,64,4.0,11.0,91,0.00,,,0.00,,2013-03-05 19:01:00,
2013-03-05 13:11:00,30.0,28.0,29.85,ENE,64,4.0,11.0,91,0.00,,,0.00,,2013-03-05 19:11:00,
2013-03-05 13:21:00,29.0,27.0,29.85,NE,52,4.0,9.0,91,0.00,,,0.00,,2013-03-05 19:21:00,
2013-03-05 13:32:00,29.0,27.0,29.85,NNE,30,4.0,9.0,91,0.00,,,0.00,,2013-03-05 19:32:00,
2013-03-05 13:42:00,29.0,27.0,29.85,NNE,30,4.0,9.0,91,0.00,,,0.00,,2013-03-05 19:42:00,
2013-03-05 13:52:00,29.0,27.0,29.85,NNE,20,2.0,10.0,91,0.00,,,0.00,,2013-03-05 19:52:00,
2013-03-05 14:01:00,30.0,28.0,29.85,NNE,29,4.0,9.0,91,0.00,,,0.00,,2013-03-05 20:01:00,
2013-03-05 14:11:00,30.0,28.0,29.85,NE,40,3.0,7.0,91,0.00,,,0.00,,2013-03-05 20:11:00,
2013-03-05 14:21:00,30.0,28.0,29.85,NE,40,3.0,7.0,91,0.00,,,0.00,,2013-03-05 20:21:00,
2013-03-05 14:32:00,30.0,27.0,29.85,NE,48,4.0,8.0,89,0.00,,,0.00,,2013-03-05 20:32:00,
2013-03-05 14:41:00,30.0,27.0,29.85,NE,48,4.0,8.0,89,0.00,,,0.00,,2013-03-05 20:41:00,
2013-03-05 14:52:00,30.0,27.0,29.86,North,4,4.0,8.0,88,0.00,,,0.00,,2013-03-05 20:52:00,
2013-03-05 15:02:00,31.0,28.0,29.86,NE,41,5.0,8.0,87,0.00,,,0.00,,2013-03-05 21:02:00,
2013-03-05 15:11:00,31.0,28.0,29.86,NE,41,5.0,8.0,87,0.00,,,0.00,,2013-03-05 21:11:00,
2013-03-05 15:21:00,30.0,27.0,29.85,NE,38,1.0,8.0,87,0.00,,,0.00,,2013-03-05 21:21:00,
2013-03-05 15:31:00,30.0,26.0,29.86,NE,38,4.0,9.0,86,0.00,,,0.00,,2013-03-05 21:31:00,
2013-03-05 15:42:00,30.0,26.0,29.86,NE,38,4.0,9.0,86,0.00,,,0.00,,2013-03-05 21:42:00,
2013-03-05 15:52:00,30.0,26.0,29.86,NNE,20,2.0,9.0,86,0.00,,,0.00,,2013-03-05 21:52:00,
2013-03-05 16:01:00,29.0,25.0,29.85,NNE,23,5.0,10.0,86,0.00,,,0.00,,2013-03-05 22:01:00,
2013-03-05 16:11:00,29.0,25.0,29.85,NNE,23,5.0,10.0,86,0.00,,,0.00,,2013-03-05 22:11:00,
2013-03-05 16:21:00,29.0,26.0,29.86,NNW,332,4.0,11.0,87,0.00,,,0.00,,2013-03-05 22:21:00,
2013-03-05 16:32:00,29.0,26.0,29.86,NNW,332,4.0,11.0,87,0.00,,,0.00,,2013-03-05 22:32:00,
2013-03-05 16:42:00,29.0,26.0,29.86,NNW,332,4.0,11.0,87,0.00,,,0.00,,2013-03-05 22:42:00,
2013-03-05 16:52:00,28.0,26.0,29.86,NNE,19,4.0,13.0,91,0.00,,,0.00,,2013-03-05 22:52:00,
2013-03-05 17:01:00,28.0,26.0,29.87,NNE,27,4.0,11.0,93,0.00,,,0.00,,2013-03-05 23:01:00,
2013-03-05 17:11:00,28.0,26.0,29.87,NNE,27,4.0,11.0,93,0.00,,,0.00,,2013-03-05 23:11:00,
2013-03-05 17:21:00,28.0,26.0,29.87,NNE,27,4.0,11.0,93,0.00,,,0.00,,2013-03-05 23:21:00,
2013-03-05 17:32:00,28.0,27.0,29.88,North,11,4.0,14.0,95,0.00,,,0.00,,2013-03-05 23:32:00,
2013-03-05 17:41:00,28.0,27.0,29.88,North,11,4.0,14.0,95,0.00,,,0.00,,2013-03-05 23:41:00,
2013-03-05 17:53:00,28.0,27.0,29.88,NNE,16,5.0,12.0,95,0.00,,,0.00,,2013-03-05 23:53:00,
2013-03-05 18:01:00,28.0,27.0,29.88,North,5,5.0,11.0,96,0.00,,,0.00,,2013-03-06 00:01:00,
2013-03-05 18:11:00,28.0,27.0,29.88,North,5,5.0,11.0,96,0.00,,,0.00,,2013-03-06 00:11:00,
2013-03-05 18:21:00,28.0,27.0,29.90,North,352,5.0,11.0,96,0.00,,,0.00,,2013-03-06 00:21:00,
2013-03-05 18:32:00,28.0,27.0,29.91,NNW,339,8.0,13.0,96,0.00,,,0.00,,2013-03-06 00:32:00,
2013-03-05 18:41:00,28.0,27.0,29.91,NNW,339,8.0,13.0,96,0.00,,,0.00,,2013-03-06 00:41:00,
2013-03-05 18:51:00,28.0,27.0,29.91,NNW,346,6.0,13.0,96,0.00,,,0.00,,2013-03-06 00:51:00,
2013-03-05 19:02:00,28.0,27.0,29.91,NNW,342,5.0,14.0,96,0.00,,,0.00,,2013-03-06 01:02:00,
2013-03-05 19:11:00,28.0,27.0,29.91,NNW,342,5.0,14.0,96,0.00,,,0.00,,2013-03-06 01:11:00,
2013-03-05 19:21:00,27.0,26.0,29.92,NNW,348,11.0,17.0,96,0.00,,,0.00,,2013-03-06 01:21:00,
2013-03-05 19:32:00,27.0,26.0,29.93,North,355,9.0,17.0,96,0.00,,,0.00,,2013-03-06 01:32:00,
2013-03-05 19:42:00,27.0,26.0,29.93,North,355,9.0,17.0,96,0.00,,,0.00,,2013-03-06 01:42:00,
2013-03-05 19:52:00,27.0,26.0,29.93,North,358,11.0,17.0,96,0.00,,,0.00,,2013-03-06 01:52:00,
2013-03-05 20:01:00,27.0,26.0,29.93,North,353,8.0,20.0,96,0.00,,,0.00,,2013-03-06 02:01:00,
2013-03-05 20:11:00,27.0,26.0,29.93,North,353,8.0,20.0,96,0.00,,,0.00,,2013-03-06 02:11:00,
2013-03-05 20:22:00,26.0,25.0,29.94,NNW,348,9.0,15.0,96,0.00,,,0.00,,2013-03-06 02:22:00,
2013-03-05 20:32:00,26.0,25.0,29.94,North,352,6.0,15.0,95,0.00,,,0.00,,2013-03-06 02:32:00,
2013-03-05 20:42:00,26.0,25.0,29.94,North,352,6.0,15.0,95,0.00,,,0.00,,2013-03-06 02:42:00,
2013-03-05 20:52:00,26.0,24.0,29.95,NNW,333,9.0,16.0,93,0.00,,,0.00,,2013-03-06 02:52:00,
2013-03-05 21:01:00,26.0,24.0,29.95,North,353,9.0,17.0,93,0.00,,,0.00,,2013-03-06 03:01:00,
2013-03-05 21:11:00,26.0,24.0,29.95,North,353,9.0,17.0,93,0.00,,,0.00,,2013-03-06 03:11:00,
2013-03-05 21:22:00,26.0,24.0,29.95,NNW,345,8.0,15.0,92,0.00,,,0.00,,2013-03-06 03:22:00,
2013-03-05 21:32:00,26.0,24.0,29.95,NNW,338,9.0,15.0,91,0.00,,,0.00,,2013-03-06 03:32:00,
2013-03-05 21:42:00,26.0,24.0,29.95,NNW,338,9.0,15.0,91,0.00,,,0.00,,2013-03-06 03:42:00,
2013-03-05 21:52:00,26.0,23.0,29.96,NW,319,7.0,16.0,90,0.00,,,0.00,,2013-03-06 03:52:00,
2013-03-05 22:02:00,27.0,24.0,29.96,NNW,339,9.0,16.0,90,0.00,,,0.00,,2013-03-06 04:02:00,
2013-03-05 22:11:00,27.0,24.0,29.96,NNW,339,9.0,16.0,90,0.00,,,0.00,,2013-03-06 04:11:00,
2013-03-05 22:21:00,27.0,24.0,29.96,NNW,341,7.0,18.0,89,0.00,,,0.00,,2013-03-06 04:21:00,
2013-03-05 22:32:00,27.0,24.0,29.96,NNW,341,7.0,18.0,89,0.00,,,0.00,,2013-03-06 04:32:00,
2013-03-05 22:41:00,27.0,24.0,29.96,NNW,341,7.0,18.0,89,0.00,,,0.00,,2013-03-06 04:41:00,
2013-03-05 22:52:00,28.0,25.0,29.98,NNW,340,5.0,13.0,87,0.00,,,0.00,,2013-03-06 04:52:00,
2013-03-05 23:02:00,28.0,24.0,29.98,NNW,332,10.0,17.0,85,0.00,,,0.00,,2013-03-06 05:02:00,
2013-03-05 23:11:00,28.0,24.0,29.98,NNW,328,10.0,17.0,85,0.00,,,0.00,,2013-03-06 05:11:00,
2013-03-05 23:22:00,28.0,24.0,29.98,NNW,328,10.0,17.0,85,0.00,,,0.00,,2013-03-06 05:22:00,
2013-03-05 23:32:00,28.0,24.0,29.98,North,355,5.0,17.0,83,0.00,,,0.00,,2013-03-06 05:32:00,
2013-03-05 23:42:00,28.0,24.0,29.98,North,355,5.0,17.0,83,0.00,,,0.00,,2013-03-06 05:42:00,
2013-03-05 23:52:00,28.0,24.0,29.99,NNW,348,7.0,16.0,83,0.00,,,0.00,,2013-03-06 05:52:00,